owner,sensor,date,latitude,longitude,air_pressure(mBar),qcFlag 
NDBC,ioos:station:wmo:42056:1,2017-02-01T00:40:00Z,19.8020,-84.8570,1019.1,1111122 
NDBC,ioos:station:wmo:42056:1,2017-02-01T01:50:00Z,19.8020,-84.8570,1019.5,1111122 
NDBC,ioos:station:wmo:42056:1,2017-02-01T02:40:00Z,19.8020,-84.8570,1019.5,1111122 
NDBC,ioos:station:wmo:42056:1,2017-02-01T03:40:00Z,19.8020,-84.8570,1019.5,1111122 
NDBC,ioos:station:wmo:42056:1,2017-02-01T04:40:00Z,19.8020,-84.8570,1019.0,1111122 
NDBC,ioos:station:wmo:42056:1,2017-02-01T05:40:00Z,19.8020,-84.8570,1018.8,1111122 
NDBC,ioos:station:wmo:42056:1,2017-02-01T06:40:00Z,19.8020,-84.8570,1018.4,1111122 
NDBC,ioos:station:wmo:42056:1,2017-02-01T07:40:00Z,19.8020,-84.8570,1017.8,1111122 
NDBC,ioos:station:wmo:42056:1,2017-02-01T08:40:00Z,19.8020,-84.8570,1017.1,1111122 
NDBC,ioos:station:wmo:42056:1,2017-02-01T09:40:00Z,19.8020,-84.8570,1017.3,1111122 
NDBC,ioos:station:wmo:42056:1,2017-02-01T10:40:00Z,19.8020,-84.8570,1017.4,1111122 
NDBC,ioos:station:wmo:42056:1,2017-02-01T11:40:00Z,19.8020,-84.8570,1017.6,1111122 
NDBC,ioos:station:wmo:42056:1,2017-02-01T12:40:00Z,19.8020,-84.8570,1018.6,1111122 
NDBC,ioos:station:wmo:42056:1,2017-02-01T13:40:00Z,19.8020,-84.8570,1018.6,1111122 
NDBC,ioos:station:wmo:42056:1,2017-02-01T14:40:00Z,19.8020,-84.8570,1019.0,1111122 
NDBC,ioos:station:wmo:42056:1,2017-02-01T15:40:00Z,19.8020,-84.8570,1019.4,1111122 
NDBC,ioos:station:wmo:42056:1,2017-02-01T16:40:00Z,19.8020,-84.8570,1018.6,1111122 
NDBC,ioos:station:wmo:42056:1,2017-02-01T17:40:00Z,19.8020,-84.8570,1017.8,1111122 
NDBC,ioos:station:wmo:42056:1,2017-02-01T18:40:00Z,19.8020,-84.8570,1017.1,1111122 
NDBC,ioos:station:wmo:42056:1,2017-02-01T19:40:00Z,19.8020,-84.8570,1016.4,1111122 
NDBC,ioos:station:wmo:42056:1,2017-02-01T20:40:00Z,19.8020,-84.8570,1016.0,1111122 
NDBC,ioos:station:wmo:42056:1,2017-02-01T21:40:00Z,19.8020,-84.8570,1016.4,1111122 
NDBC,ioos:station:wmo:42056:1,2017-02-01T22:50:00Z,19.8020,-84.8570,1016.5,1111122 
NDBC,ioos:station:wmo:42056:1,2017-02-01T23:40:00Z,19.8020,-84.8570,1016.9,1111122 
NDBC,ioos:station:wmo:42056:1,2017-02-02T00:40:00Z,19.8020,-84.8570,1017.3,1111122 
NDBC,ioos:station:wmo:42056:1,2017-02-02T01:10:00Z,19.8020,-84.8570,1017.5,1111122 
NDBC,ioos:station:wmo:42056:1,2017-02-02T02:50:00Z,19.8020,-84.8570,1018.3,1111122 
NDBC,ioos:station:wmo:42056:1,2017-02-02T03:50:00Z,19.8020,-84.8570,1018.3,1111122 
NDBC,ioos:station:wmo:42056:1,2017-02-02T04:40:00Z,19.8020,-84.8570,1017.8,1111122 
NDBC,ioos:station:wmo:42056:1,2017-02-02T05:40:00Z,19.8020,-84.8570,1017.6,1111122 
NDBC,ioos:station:wmo:42056:1,2017-02-02T06:40:00Z,19.8020,-84.8570,1017.0,1111122 
NDBC,ioos:station:wmo:42056:1,2017-02-02T07:40:00Z,19.8020,-84.8570,1016.5,1111122 
NDBC,ioos:station:wmo:42056:1,2017-02-02T08:40:00Z,19.8020,-84.8570,1016.4,1111122 
NDBC,ioos:station:wmo:42056:1,2017-02-02T09:40:00Z,19.8020,-84.8570,1017.0,1111122 
NDBC,ioos:station:wmo:42056:1,2017-02-02T10:50:00Z,19.8020,-84.8570,1017.3,1111122 
NDBC,ioos:station:wmo:42056:1,2017-02-02T11:50:00Z,19.8020,-84.8570,1017.5,1111122 
NDBC,ioos:station:wmo:42056:1,2017-02-02T12:40:00Z,19.8020,-84.8570,1018.3,1111122 
NDBC,ioos:station:wmo:42056:1,2017-02-02T13:40:00Z,19.8020,-84.8570,1019.0,1111122 
NDBC,ioos:station:wmo:42056:1,2017-02-02T14:40:00Z,19.8020,-84.8570,1019.4,1111122 
NDBC,ioos:station:wmo:42056:1,2017-02-02T15:40:00Z,19.8020,-84.8570,1019.8,1111122 
NDBC,ioos:station:wmo:42056:1,2017-02-02T16:40:00Z,19.8020,-84.8570,1019.6,1111122 
NDBC,ioos:station:wmo:42056:1,2017-02-02T17:40:00Z,19.8020,-84.8570,1019.0,1111122 
NDBC,ioos:station:wmo:42056:1,2017-02-02T18:40:00Z,19.8020,-84.8570,1017.9,1111122 
NDBC,ioos:station:wmo:42056:1,2017-02-02T19:40:00Z,19.8020,-84.8570,1017.0,1111122 
NDBC,ioos:station:wmo:42056:1,2017-02-02T20:40:00Z,19.8020,-84.8570,1017.0,1111122 
NDBC,ioos:station:wmo:42056:1,2017-02-02T21:40:00Z,19.8020,-84.8570,1017.0,1111122 
NDBC,ioos:station:wmo:42056:1,2017-02-02T22:50:00Z,19.8020,-84.8570,1017.0,1111122 
NDBC,ioos:station:wmo:42056:1,2017-02-02T23:40:00Z,19.8020,-84.8570,1017.1,1111122 
NDBC,ioos:station:wmo:42056:1,2017-02-03T00:40:00Z,19.8020,-84.8570,1018.1,1111122 
NDBC,ioos:station:wmo:42056:1,2017-02-03T01:50:00Z,19.8020,-84.8570,1018.1,1111122 
NDBC,ioos:station:wmo:42056:1,2017-02-03T02:40:00Z,19.8020,-84.8570,1018.3,1111122 
NDBC,ioos:station:wmo:42056:1,2017-02-03T03:40:00Z,19.8020,-84.8570,1018.8,1111122 
NDBC,ioos:station:wmo:42056:1,2017-02-03T04:40:00Z,19.8020,-84.8570,1018.5,1111122 
NDBC,ioos:station:wmo:42056:1,2017-02-03T05:40:00Z,19.8020,-84.8570,1018.3,1111122 
NDBC,ioos:station:wmo:42056:1,2017-02-03T06:40:00Z,19.8020,-84.8570,1017.9,1111122 
NDBC,ioos:station:wmo:42056:1,2017-02-03T07:40:00Z,19.8020,-84.8570,1017.4,1111122 
NDBC,ioos:station:wmo:42056:1,2017-02-03T08:00:00Z,19.8020,-84.8570,1017.1,1111122 
NDBC,ioos:station:wmo:42056:1,2017-02-03T08:10:00Z,19.8020,-84.8570,1017.4,1111122 
NDBC,ioos:station:wmo:42056:1,2017-02-03T10:40:00Z,19.8020,-84.8570,1017.5,1111122 
NDBC,ioos:station:wmo:42056:1,2017-02-03T11:40:00Z,19.8020,-84.8570,1018.0,1111122 
NDBC,ioos:station:wmo:42056:1,2017-02-03T12:40:00Z,19.8020,-84.8570,1018.5,1111122 
NDBC,ioos:station:wmo:42056:1,2017-02-03T13:40:00Z,19.8020,-84.8570,1019.0,1111122 
NDBC,ioos:station:wmo:42056:1,2017-02-03T14:50:00Z,19.8020,-84.8570,1019.6,1111122 
NDBC,ioos:station:wmo:42056:1,2017-02-03T15:40:00Z,19.8020,-84.8570,1019.8,1111122 
NDBC,ioos:station:wmo:42056:1,2017-02-03T16:40:00Z,19.8020,-84.8570,1019.4,1111122 
NDBC,ioos:station:wmo:42056:1,2017-02-03T17:40:00Z,19.8020,-84.8570,1018.5,1111122 
NDBC,ioos:station:wmo:42056:1,2017-02-03T18:40:00Z,19.8020,-84.8570,1018.0,1111122 
NDBC,ioos:station:wmo:42056:1,2017-02-03T19:40:00Z,19.8020,-84.8570,1017.4,1111122 
NDBC,ioos:station:wmo:42056:1,2017-02-03T20:50:00Z,19.8020,-84.8570,1016.9,1111122 
NDBC,ioos:station:wmo:42056:1,2017-02-03T21:40:00Z,19.8020,-84.8570,1016.9,1111122 
NDBC,ioos:station:wmo:42056:1,2017-02-03T22:50:00Z,19.8020,-84.8570,1017.0,1111122 
NDBC,ioos:station:wmo:42056:1,2017-02-03T23:50:00Z,19.8020,-84.8570,1017.5,1111122 
NDBC,ioos:station:wmo:42056:1,2017-02-04T00:40:00Z,19.8020,-84.8570,1018.0,1111122 
NDBC,ioos:station:wmo:42056:1,2017-02-04T01:20:00Z,19.8020,-84.8570,1018.5,1111122 
NDBC,ioos:station:wmo:42056:1,2017-02-04T02:40:00Z,19.8020,-84.8570,1019.3,1111122 
NDBC,ioos:station:wmo:42056:1,2017-02-04T03:40:00Z,19.8020,-84.8570,1019.5,1111122 
NDBC,ioos:station:wmo:42056:1,2017-02-04T04:50:00Z,19.8020,-84.8570,1019.1,1111122 
NDBC,ioos:station:wmo:42056:1,2017-02-04T05:40:00Z,19.8020,-84.8570,1019.0,1111122 
NDBC,ioos:station:wmo:42056:1,2017-02-04T06:40:00Z,19.8020,-84.8570,1018.5,1111122 
NDBC,ioos:station:wmo:42056:1,2017-02-04T07:40:00Z,19.8020,-84.8570,1018.0,1111122 
NDBC,ioos:station:wmo:42056:1,2017-02-04T08:50:00Z,19.8020,-84.8570,1017.4,1111122 
NDBC,ioos:station:wmo:42056:1,2017-02-04T09:50:00Z,19.8020,-84.8570,1017.1,1111122 
NDBC,ioos:station:wmo:42056:1,2017-02-04T10:50:00Z,19.8020,-84.8570,1017.4,1111122 
NDBC,ioos:station:wmo:42056:1,2017-02-04T11:40:00Z,19.8020,-84.8570,1018.1,1111122 
NDBC,ioos:station:wmo:42056:1,2017-02-04T12:40:00Z,19.8020,-84.8570,1018.5,1111122 
NDBC,ioos:station:wmo:42056:1,2017-02-04T13:40:00Z,19.8020,-84.8570,1019.4,1111122 
NDBC,ioos:station:wmo:42056:1,2017-02-04T14:40:00Z,19.8020,-84.8570,1020.0,1111122 
NDBC,ioos:station:wmo:42056:1,2017-02-04T15:50:00Z,19.8020,-84.8570,1020.0,1111122 
NDBC,ioos:station:wmo:42056:1,2017-02-04T16:40:00Z,19.8020,-84.8570,1019.8,1111122 
NDBC,ioos:station:wmo:42056:1,2017-02-04T17:40:00Z,19.8020,-84.8570,1018.9,1111122 
NDBC,ioos:station:wmo:42056:1,2017-02-04T18:40:00Z,19.8020,-84.8570,1017.9,1111122 
NDBC,ioos:station:wmo:42056:1,2017-02-04T19:50:00Z,19.8020,-84.8570,1016.8,1111122 
NDBC,ioos:station:wmo:42056:1,2017-02-04T20:50:00Z,19.8020,-84.8570,1016.1,1111122 
NDBC,ioos:station:wmo:42056:1,2017-02-04T21:40:00Z,19.8020,-84.8570,1016.0,1111122 
NDBC,ioos:station:wmo:42056:1,2017-02-04T22:40:00Z,19.8020,-84.8570,1016.5,1111122 
NDBC,ioos:station:wmo:42056:1,2017-02-04T23:40:00Z,19.8020,-84.8570,1016.9,1111122 
NDBC,ioos:station:wmo:42056:1,2017-02-05T00:40:00Z,19.8020,-84.8570,1017.3,1111122 
NDBC,ioos:station:wmo:42056:1,2017-02-05T01:50:00Z,19.8020,-84.8570,1017.6,1111122 
NDBC,ioos:station:wmo:42056:1,2017-02-05T02:40:00Z,19.8020,-84.8570,1018.0,1111122 
NDBC,ioos:station:wmo:42056:1,2017-02-05T03:40:00Z,19.8020,-84.8570,1018.3,1111122 
NDBC,ioos:station:wmo:42056:1,2017-02-05T04:40:00Z,19.8020,-84.8570,1018.0,1111122 
NDBC,ioos:station:wmo:42056:1,2017-02-05T05:40:00Z,19.8020,-84.8570,1017.3,1111122 
NDBC,ioos:station:wmo:42056:1,2017-02-05T06:40:00Z,19.8020,-84.8570,1017.0,1111122 
NDBC,ioos:station:wmo:42056:1,2017-02-05T07:40:00Z,19.8020,-84.8570,1016.5,1111122 
NDBC,ioos:station:wmo:42056:1,2017-02-05T08:50:00Z,19.8020,-84.8570,1016.0,1111122 
NDBC,ioos:station:wmo:42056:1,2017-02-05T09:50:00Z,19.8020,-84.8570,1016.1,1111122 
NDBC,ioos:station:wmo:42056:1,2017-02-05T10:40:00Z,19.8020,-84.8570,1016.4,1111122 
NDBC,ioos:station:wmo:42056:1,2017-02-05T11:40:00Z,19.8020,-84.8570,1017.0,1111122 
NDBC,ioos:station:wmo:42056:1,2017-02-05T12:40:00Z,19.8020,-84.8570,1017.5,1111122 
NDBC,ioos:station:wmo:42056:1,2017-02-05T13:50:00Z,19.8020,-84.8570,1018.1,1111122 
NDBC,ioos:station:wmo:42056:1,2017-02-05T14:40:00Z,19.8020,-84.8570,1018.5,1111122 
NDBC,ioos:station:wmo:42056:1,2017-02-05T15:40:00Z,19.8020,-84.8570,1018.9,1111122 
NDBC,ioos:station:wmo:42056:1,2017-02-05T16:40:00Z,19.8020,-84.8570,1018.3,1111122 
NDBC,ioos:station:wmo:42056:1,2017-02-05T17:40:00Z,19.8020,-84.8570,1017.4,1111122 
NDBC,ioos:station:wmo:42056:1,2017-02-05T18:40:00Z,19.8020,-84.8570,1016.4,1111122 
NDBC,ioos:station:wmo:42056:1,2017-02-05T19:40:00Z,19.8020,-84.8570,1015.5,1111122 
NDBC,ioos:station:wmo:42056:1,2017-02-05T20:40:00Z,19.8020,-84.8570,1015.3,1111122 
NDBC,ioos:station:wmo:42056:1,2017-02-05T21:50:00Z,19.8020,-84.8570,1015.5,1111122 
NDBC,ioos:station:wmo:42056:1,2017-02-05T22:40:00Z,19.8020,-84.8570,1015.8,1111122 
NDBC,ioos:station:wmo:42056:1,2017-02-05T23:40:00Z,19.8020,-84.8570,1016.3,1111122 
NDBC,ioos:station:wmo:42056:1,2017-02-06T00:30:00Z,19.8020,-84.8570,1016.6,1111122 
NDBC,ioos:station:wmo:42056:1,2017-02-06T01:40:00Z,19.8020,-84.8570,1017.1,1111122 
NDBC,ioos:station:wmo:42056:1,2017-02-06T02:40:00Z,19.8020,-84.8570,1017.4,1111122 
NDBC,ioos:station:wmo:42056:1,2017-02-06T03:40:00Z,19.8020,-84.8570,1017.5,1111122 
NDBC,ioos:station:wmo:42056:1,2017-02-06T04:40:00Z,19.8020,-84.8570,1017.4,1111122 
NDBC,ioos:station:wmo:42056:1,2017-02-06T05:40:00Z,19.8020,-84.8570,1016.9,1111122 
NDBC,ioos:station:wmo:42056:1,2017-02-06T06:40:00Z,19.8020,-84.8570,1016.5,1111122 
NDBC,ioos:station:wmo:42056:1,2017-02-06T07:40:00Z,19.8020,-84.8570,1015.9,1111122 
NDBC,ioos:station:wmo:42056:1,2017-02-06T08:50:00Z,19.8020,-84.8570,1015.6,1111122 
NDBC,ioos:station:wmo:42056:1,2017-02-06T09:40:00Z,19.8020,-84.8570,1015.5,1111122 
NDBC,ioos:station:wmo:42056:1,2017-02-06T10:40:00Z,19.8020,-84.8570,1015.9,1111122 
NDBC,ioos:station:wmo:42056:1,2017-02-06T11:40:00Z,19.8020,-84.8570,1016.5,1111122 
NDBC,ioos:station:wmo:42056:1,2017-02-06T12:40:00Z,19.8020,-84.8570,1017.1,1111122 
NDBC,ioos:station:wmo:42056:1,2017-02-06T13:40:00Z,19.8020,-84.8570,1017.8,1111122 
NDBC,ioos:station:wmo:42056:1,2017-02-06T14:50:00Z,19.8020,-84.8570,1018.4,1111122 
NDBC,ioos:station:wmo:42056:1,2017-02-06T15:40:00Z,19.8020,-84.8570,1018.4,1111122 
NDBC,ioos:station:wmo:42056:1,2017-02-06T16:40:00Z,19.8020,-84.8570,1017.6,1111122 
NDBC,ioos:station:wmo:42056:1,2017-02-06T17:40:00Z,19.8020,-84.8570,1016.8,1111122 
NDBC,ioos:station:wmo:42056:1,2017-02-06T18:40:00Z,19.8020,-84.8570,1015.9,1111122 
NDBC,ioos:station:wmo:42056:1,2017-02-06T19:50:00Z,19.8020,-84.8570,1015.4,1111122 
NDBC,ioos:station:wmo:42056:1,2017-02-06T20:40:00Z,19.8020,-84.8570,1015.0,1111122 
NDBC,ioos:station:wmo:42056:1,2017-02-06T21:40:00Z,19.8020,-84.8570,1015.0,1111122 
NDBC,ioos:station:wmo:42056:1,2017-02-06T22:50:00Z,19.8020,-84.8570,1014.6,1111122 
NDBC,ioos:station:wmo:42056:1,2017-02-07T00:40:00Z,19.8020,-84.8570,1015.8,1111122 
NDBC,ioos:station:wmo:42056:1,2017-02-07T02:40:00Z,19.8020,-84.8570,1016.5,1111122 
NDBC,ioos:station:wmo:42056:1,2017-02-07T03:40:00Z,19.8020,-84.8570,1016.5,1111122 
NDBC,ioos:station:wmo:42056:1,2017-02-07T04:40:00Z,19.8020,-84.8570,1016.1,1111122 
NDBC,ioos:station:wmo:42056:1,2017-02-07T05:40:00Z,19.8020,-84.8570,1015.8,1111122 
NDBC,ioos:station:wmo:42056:1,2017-02-07T06:40:00Z,19.8020,-84.8570,1015.4,1111122 
NDBC,ioos:station:wmo:42056:1,2017-02-07T07:40:00Z,19.8020,-84.8570,1014.8,1111122 
NDBC,ioos:station:wmo:42056:1,2017-02-07T08:40:00Z,19.8020,-84.8570,1014.4,1111122 
NDBC,ioos:station:wmo:42056:1,2017-02-07T09:50:00Z,19.8020,-84.8570,1014.5,1111122 
NDBC,ioos:station:wmo:42056:1,2017-02-07T10:50:00Z,19.8020,-84.8570,1015.0,1111122 
NDBC,ioos:station:wmo:42056:1,2017-02-07T11:40:00Z,19.8020,-84.8570,1015.5,1111122 
NDBC,ioos:station:wmo:42056:1,2017-02-07T12:40:00Z,19.8020,-84.8570,1015.5,1111122 
NDBC,ioos:station:wmo:42056:1,2017-02-07T13:40:00Z,19.8020,-84.8570,1015.8,1111122 
NDBC,ioos:station:wmo:42056:1,2017-02-07T13:50:00Z,19.8020,-84.8570,1015.9,1111122 
NDBC,ioos:station:wmo:42056:1,2017-02-07T16:40:00Z,19.8020,-84.8570,1016.4,1111122 
NDBC,ioos:station:wmo:42056:1,2017-02-07T17:40:00Z,19.8020,-84.8570,1015.5,1111122 
NDBC,ioos:station:wmo:42056:1,2017-02-07T18:40:00Z,19.8020,-84.8570,1014.6,1111122 
NDBC,ioos:station:wmo:42056:1,2017-02-07T19:40:00Z,19.8020,-84.8570,1013.6,1111122 
NDBC,ioos:station:wmo:42056:1,2017-02-07T20:50:00Z,19.8020,-84.8570,1012.8,1111122 
NDBC,ioos:station:wmo:42056:1,2017-02-07T21:40:00Z,19.8020,-84.8570,1013.0,1111122 
NDBC,ioos:station:wmo:42056:1,2017-02-07T22:50:00Z,19.8020,-84.8570,1013.5,1111122 
NDBC,ioos:station:wmo:42056:1,2017-02-07T23:50:00Z,19.8020,-84.8570,1013.6,1111122 
NDBC,ioos:station:wmo:42056:1,2017-02-08T00:50:00Z,19.8020,-84.8570,1013.9,1111122 
NDBC,ioos:station:wmo:42056:1,2017-02-08T01:10:00Z,19.8020,-84.8570,1014.0,1111122 
NDBC,ioos:station:wmo:42056:1,2017-02-08T02:50:00Z,19.8020,-84.8570,1014.0,1111122 
NDBC,ioos:station:wmo:42056:1,2017-02-08T03:50:00Z,19.8020,-84.8570,1014.1,1111122 
NDBC,ioos:station:wmo:42056:1,2017-02-08T04:50:00Z,19.8020,-84.8570,1013.9,1111122 
NDBC,ioos:station:wmo:42056:1,2017-02-08T05:50:00Z,19.8020,-84.8570,1013.4,1111122 
NDBC,ioos:station:wmo:42056:1,2017-02-08T06:40:00Z,19.8020,-84.8570,1013.3,1111122 
NDBC,ioos:station:wmo:42056:1,2017-02-08T07:50:00Z,19.8020,-84.8570,1013.0,1111122 
NDBC,ioos:station:wmo:42056:1,2017-02-08T08:50:00Z,19.8020,-84.8570,1012.9,1111122 
NDBC,ioos:station:wmo:42056:1,2017-02-08T09:50:00Z,19.8020,-84.8570,1012.8,1111122 
NDBC,ioos:station:wmo:42056:1,2017-02-08T10:50:00Z,19.8020,-84.8570,1013.0,1111122 
NDBC,ioos:station:wmo:42056:1,2017-02-08T11:50:00Z,19.8020,-84.8570,1013.4,1111122 
NDBC,ioos:station:wmo:42056:1,2017-02-08T12:40:00Z,19.8020,-84.8570,1014.0,1111122 
NDBC,ioos:station:wmo:42056:1,2017-02-08T13:50:00Z,19.8020,-84.8570,1014.9,1111122 
NDBC,ioos:station:wmo:42056:1,2017-02-08T14:50:00Z,19.8020,-84.8570,1015.6,1111122 
NDBC,ioos:station:wmo:42056:1,2017-02-08T15:50:00Z,19.8020,-84.8570,1015.9,1111122 
NDBC,ioos:station:wmo:42056:1,2017-02-08T16:50:00Z,19.8020,-84.8570,1015.3,1111122 
NDBC,ioos:station:wmo:42056:1,2017-02-08T17:50:00Z,19.8020,-84.8570,1014.6,1111122 
NDBC,ioos:station:wmo:42056:1,2017-02-08T18:40:00Z,19.8020,-84.8570,1014.1,1111122 
NDBC,ioos:station:wmo:42056:1,2017-02-08T19:40:00Z,19.8020,-84.8570,1013.4,1111122 
NDBC,ioos:station:wmo:42056:1,2017-02-08T20:40:00Z,19.8020,-84.8570,1013.0,1111122 
NDBC,ioos:station:wmo:42056:1,2017-02-08T21:40:00Z,19.8020,-84.8570,1013.1,1111122 
NDBC,ioos:station:wmo:42056:1,2017-02-08T22:40:00Z,19.8020,-84.8570,1013.5,1111122 
NDBC,ioos:station:wmo:42056:1,2017-02-08T23:40:00Z,19.8020,-84.8570,1014.3,1111122 
NDBC,ioos:station:wmo:42056:1,2017-02-09T00:40:00Z,19.8020,-84.8570,1014.8,1111122 
NDBC,ioos:station:wmo:42056:1,2017-02-09T01:40:00Z,19.8020,-84.8570,1015.4,1111122 
NDBC,ioos:station:wmo:42056:1,2017-02-09T02:50:00Z,19.8020,-84.8570,1016.0,1111122 
NDBC,ioos:station:wmo:42056:1,2017-02-09T03:40:00Z,19.8020,-84.8570,1016.4,1111122 
NDBC,ioos:station:wmo:42056:1,2017-02-09T04:40:00Z,19.8020,-84.8570,1016.5,1111122 
NDBC,ioos:station:wmo:42056:1,2017-02-09T05:40:00Z,19.8020,-84.8570,1016.3,1111122 
NDBC,ioos:station:wmo:42056:1,2017-02-09T06:40:00Z,19.8020,-84.8570,1015.9,1111122 
NDBC,ioos:station:wmo:42056:1,2017-02-09T07:40:00Z,19.8020,-84.8570,1015.5,1111122 
NDBC,ioos:station:wmo:42056:1,2017-02-09T08:40:00Z,19.8020,-84.8570,1015.4,1111122 
NDBC,ioos:station:wmo:42056:1,2017-02-09T09:40:00Z,19.8020,-84.8570,1015.3,1111122 
NDBC,ioos:station:wmo:42056:1,2017-02-09T10:40:00Z,19.8020,-84.8570,1015.6,1111122 
NDBC,ioos:station:wmo:42056:1,2017-02-09T11:40:00Z,19.8020,-84.8570,1016.3,1111122 
NDBC,ioos:station:wmo:42056:1,2017-02-09T12:40:00Z,19.8020,-84.8570,1017.0,1111122 
NDBC,ioos:station:wmo:42056:1,2017-02-09T13:40:00Z,19.8020,-84.8570,1017.9,1111122 
NDBC,ioos:station:wmo:42056:1,2017-02-09T14:40:00Z,19.8020,-84.8570,1018.5,1111122 
NDBC,ioos:station:wmo:42056:1,2017-02-09T19:40:00Z,19.8020,-84.8570,1017.0,1111122 
NDBC,ioos:station:wmo:42056:1,2017-02-09T20:40:00Z,19.8020,-84.8570,1016.8,1111122 
NDBC,ioos:station:wmo:42056:1,2017-02-09T21:40:00Z,19.8020,-84.8570,1017.0,1111122 
NDBC,ioos:station:wmo:42056:1,2017-02-09T22:40:00Z,19.8020,-84.8570,1017.5,1111122 
NDBC,ioos:station:wmo:42056:1,2017-02-10T00:40:00Z,19.8020,-84.8570,1019.1,1111122 
NDBC,ioos:station:wmo:42056:1,2017-02-10T02:40:00Z,19.8020,-84.8570,1020.5,1111122 
NDBC,ioos:station:wmo:42056:1,2017-02-10T03:40:00Z,19.8020,-84.8570,1020.9,1111122 
NDBC,ioos:station:wmo:42056:1,2017-02-10T04:50:00Z,19.8020,-84.8570,1021.0,1111122 
NDBC,ioos:station:wmo:42056:1,2017-02-10T05:40:00Z,19.8020,-84.8570,1020.8,1111122 
NDBC,ioos:station:wmo:42056:1,2017-02-10T06:50:00Z,19.8020,-84.8570,1020.5,1111122 
NDBC,ioos:station:wmo:42056:1,2017-02-10T07:50:00Z,19.8020,-84.8570,1020.0,1111122 
NDBC,ioos:station:wmo:42056:1,2017-02-10T08:50:00Z,19.8020,-84.8570,1019.6,1111122 
NDBC,ioos:station:wmo:42056:1,2017-02-10T09:40:00Z,19.8020,-84.8570,1019.9,1111122 
NDBC,ioos:station:wmo:42056:1,2017-02-10T10:30:00Z,19.8020,-84.8570,1019.9,1111122 
NDBC,ioos:station:wmo:42056:1,2017-02-10T11:40:00Z,19.8020,-84.8570,1020.8,1111122 
NDBC,ioos:station:wmo:42056:1,2017-02-10T12:40:00Z,19.8020,-84.8570,1021.3,1111122 
NDBC,ioos:station:wmo:42056:1,2017-02-10T13:40:00Z,19.8020,-84.8570,1022.0,1111122 
NDBC,ioos:station:wmo:42056:1,2017-02-10T14:40:00Z,19.8020,-84.8570,1023.0,1111122 
NDBC,ioos:station:wmo:42056:1,2017-02-10T15:40:00Z,19.8020,-84.8570,1023.3,1111122 
NDBC,ioos:station:wmo:42056:1,2017-02-10T16:30:00Z,19.8020,-84.8570,1023.0,1111122 
NDBC,ioos:station:wmo:42056:1,2017-02-10T17:40:00Z,19.8020,-84.8570,1022.0,1111122 
NDBC,ioos:station:wmo:42056:1,2017-02-10T18:50:00Z,19.8020,-84.8570,1020.9,1111122 
NDBC,ioos:station:wmo:42056:1,2017-02-10T19:40:00Z,19.8020,-84.8570,1020.3,1111122 
NDBC,ioos:station:wmo:42056:1,2017-02-10T20:40:00Z,19.8020,-84.8570,1019.6,1111122 
NDBC,ioos:station:wmo:42056:1,2017-02-10T21:40:00Z,19.8020,-84.8570,1019.8,1111122 
NDBC,ioos:station:wmo:42056:1,2017-02-10T22:50:00Z,19.8020,-84.8570,1020.0,1111122 
NDBC,ioos:station:wmo:42056:1,2017-02-10T23:40:00Z,19.8020,-84.8570,1020.1,1111122 
NDBC,ioos:station:wmo:42056:1,2017-02-11T00:30:00Z,19.8020,-84.8570,1021.0,1111122 
NDBC,ioos:station:wmo:42056:1,2017-02-11T01:20:00Z,19.8020,-84.8570,1021.0,1111122 
NDBC,ioos:station:wmo:42056:1,2017-02-11T02:40:00Z,19.8020,-84.8570,1021.5,1111122 
NDBC,ioos:station:wmo:42056:1,2017-02-11T03:40:00Z,19.8020,-84.8570,1021.5,1111122 
NDBC,ioos:station:wmo:42056:1,2017-02-11T04:40:00Z,19.8020,-84.8570,1021.3,1111122 
NDBC,ioos:station:wmo:42056:1,2017-02-11T05:40:00Z,19.8020,-84.8570,1020.4,1111122 
NDBC,ioos:station:wmo:42056:1,2017-02-11T06:40:00Z,19.8020,-84.8570,1020.1,1111122 
NDBC,ioos:station:wmo:42056:1,2017-02-11T07:40:00Z,19.8020,-84.8570,1019.5,1111122 
NDBC,ioos:station:wmo:42056:1,2017-02-11T08:50:00Z,19.8020,-84.8570,1019.1,1111122 
NDBC,ioos:station:wmo:42056:1,2017-02-11T09:50:00Z,19.8020,-84.8570,1019.3,1111122 
NDBC,ioos:station:wmo:42056:1,2017-02-11T10:40:00Z,19.8020,-84.8570,1019.5,1111122 
NDBC,ioos:station:wmo:42056:1,2017-02-11T11:40:00Z,19.8020,-84.8570,1019.9,1111122 
NDBC,ioos:station:wmo:42056:1,2017-02-11T12:30:00Z,19.8020,-84.8570,1020.5,1111122 
NDBC,ioos:station:wmo:42056:1,2017-02-11T13:40:00Z,19.8020,-84.8570,1020.9,1111122 
NDBC,ioos:station:wmo:42056:1,2017-02-11T14:40:00Z,19.8020,-84.8570,1021.5,1111122 
NDBC,ioos:station:wmo:42056:1,2017-02-11T15:30:00Z,19.8020,-84.8570,1021.8,1111122 
NDBC,ioos:station:wmo:42056:1,2017-02-11T16:40:00Z,19.8020,-84.8570,1021.5,1111122 
NDBC,ioos:station:wmo:42056:1,2017-02-11T17:40:00Z,19.8020,-84.8570,1020.8,1111122 
NDBC,ioos:station:wmo:42056:1,2017-02-11T18:40:00Z,19.8020,-84.8570,1019.9,1111122 
NDBC,ioos:station:wmo:42056:1,2017-02-11T19:40:00Z,19.8020,-84.8570,1019.3,1111122 
NDBC,ioos:station:wmo:42056:1,2017-02-11T20:40:00Z,19.8020,-84.8570,1018.9,1111122 
NDBC,ioos:station:wmo:42056:1,2017-02-11T21:40:00Z,19.8020,-84.8570,1018.9,1111122 
NDBC,ioos:station:wmo:42056:1,2017-02-11T22:40:00Z,19.8020,-84.8570,1019.0,1111122 
NDBC,ioos:station:wmo:42056:1,2017-02-11T23:40:00Z,19.8020,-84.8570,1019.3,1111122 
NDBC,ioos:station:wmo:42056:1,2017-02-12T00:30:00Z,19.8020,-84.8570,1019.6,1111122 
NDBC,ioos:station:wmo:42056:1,2017-02-12T01:40:00Z,19.8020,-84.8570,1020.0,1111122 
NDBC,ioos:station:wmo:42056:1,2017-02-12T02:40:00Z,19.8020,-84.8570,1020.1,1111122 
NDBC,ioos:station:wmo:42056:1,2017-02-12T03:40:00Z,19.8020,-84.8570,1020.3,1111122 
NDBC,ioos:station:wmo:42056:1,2017-02-12T04:30:00Z,19.8020,-84.8570,1020.1,1111122 
NDBC,ioos:station:wmo:42056:1,2017-02-12T05:40:00Z,19.8020,-84.8570,1019.5,1111122 
NDBC,ioos:station:wmo:42056:1,2017-02-12T06:40:00Z,19.8020,-84.8570,1019.0,1111122 
NDBC,ioos:station:wmo:42056:1,2017-02-12T07:40:00Z,19.8020,-84.8570,1018.3,1111122 
NDBC,ioos:station:wmo:42056:1,2017-02-12T08:40:00Z,19.8020,-84.8570,1018.0,1111122 
NDBC,ioos:station:wmo:42056:1,2017-02-12T09:40:00Z,19.8020,-84.8570,1017.8,1111122 
NDBC,ioos:station:wmo:42056:1,2017-02-12T10:40:00Z,19.8020,-84.8570,1018.0,1111122 
NDBC,ioos:station:wmo:42056:1,2017-02-12T11:40:00Z,19.8020,-84.8570,1018.5,1111122 
NDBC,ioos:station:wmo:42056:1,2017-02-12T12:40:00Z,19.8020,-84.8570,1018.8,1111122 
NDBC,ioos:station:wmo:42056:1,2017-02-12T13:20:00Z,19.8020,-84.8570,1019.0,1111122 
NDBC,ioos:station:wmo:42056:1,2017-02-12T14:40:00Z,19.8020,-84.8570,1019.9,1111122 
NDBC,ioos:station:wmo:42056:1,2017-02-12T15:40:00Z,19.8020,-84.8570,1020.1,1111122 
NDBC,ioos:station:wmo:42056:1,2017-02-12T16:40:00Z,19.8020,-84.8570,1019.9,1111122 
NDBC,ioos:station:wmo:42056:1,2017-02-12T17:40:00Z,19.8020,-84.8570,1019.3,1111122 
NDBC,ioos:station:wmo:42056:1,2017-02-12T18:40:00Z,19.8020,-84.8570,1018.0,1111122 
NDBC,ioos:station:wmo:42056:1,2017-02-12T19:40:00Z,19.8020,-84.8570,1017.4,1111122 
NDBC,ioos:station:wmo:42056:1,2017-02-12T20:40:00Z,19.8020,-84.8570,1017.0,1111122 
NDBC,ioos:station:wmo:42056:1,2017-02-12T21:40:00Z,19.8020,-84.8570,1016.9,1111122 
NDBC,ioos:station:wmo:42056:1,2017-02-12T22:40:00Z,19.8020,-84.8570,1016.9,1111122 
NDBC,ioos:station:wmo:42056:1,2017-02-12T23:40:00Z,19.8020,-84.8570,1017.1,1111122 
NDBC,ioos:station:wmo:42056:1,2017-02-13T00:40:00Z,19.8020,-84.8570,1017.8,1111122 
NDBC,ioos:station:wmo:42056:1,2017-02-13T01:30:00Z,19.8020,-84.8570,1019.1,1111122 
NDBC,ioos:station:wmo:42056:1,2017-02-13T02:40:00Z,19.8020,-84.8570,1018.6,1111122 
NDBC,ioos:station:wmo:42056:1,2017-02-13T03:40:00Z,19.8020,-84.8570,1018.6,1111122 
NDBC,ioos:station:wmo:42056:1,2017-02-13T04:30:00Z,19.8020,-84.8570,1018.5,1111122 